SONATE-2
1 59112U 24043Q   26162.68083809  .00036244  00000-0  47794-3 0  9993
2 59112  97.5519 312.7414 0006785 214.2461 145.8357 15.58306667127037
GRBBeta
1 60237U 24128C   26162.57868025  .00003203  00000-0  22564-3 0  9993
2 60237  61.9897 235.9431 0041389 133.4300 227.0250 15.06603237105429
Curium One
1 60242U 24128H   26162.55059273  .00006356  00000-0  36934-3 0  9992
2 60242  61.9783 225.7373 0040666 129.3155 231.1557 15.12441491105605
ROBUSTA-3A
1 60243U 24128J   26162.51224362  .00006273  00000-0  37269-3 0  9992
2 60243  61.9859 228.3117 0041955 127.1025 233.3917 15.11611105105568
CatSat
1 60246U 24125J   26162.55312640  .00057615  00000-0  75817-3 0  9990
2 60246  97.2095  14.9841 0022213 199.2504 160.7915 15.57988127106514
HYPERVIEW-1G (RS66S)
1 61772U 24199AP  26162.85331163  .00120653  00000-0  82449-3 0  9992
2 61772  97.2894  42.3086 0002612 249.1519 110.9466 15.74440956133839
AO-123
1 61781U 24199AY  26162.88690534  .00006895  00000-0  20107-3 0  9999
2 61781  97.3015  31.6060 0012833 334.9444  25.1175 15.35599579133112
JINJUSat 1B
1 63210U 25052A   26162.66446414  .00016024  00000-0  49924-3 0  9992
2 63210  97.4020  59.4127 0005433 103.0743 257.1106 15.33330613 69259
NUSHSAT 1
1 63211U 25052B   26162.65180502  .00019890  00000-0  57318-3 0  9995
2 63211  97.3997  59.9468 0005183 104.6380 255.5439 15.35755437 69293
TEVEL2-4
1 63213U 25052D   26162.70463612  .00017902  00000-0  53861-3 0  9990
2 63213  97.3917  59.0886 0004732 113.7416 246.4323 15.34420215 69273
TEVEL2-5
1 63214U 25052E   26162.65930424  .00017637  00000-0  53362-3 0  9996
2 63214  97.3921  58.9918 0004616 115.2111 244.9611 15.34247244 69264
TEVEL2-6
1 63215U 25052F   26162.67150742  .00017453  00000-0  52870-3 0  9995
2 63215  97.3921  58.9890 0004506 114.2026 245.9689 15.34210437 69266
TEVEL2-1
1 63217U 25052H   26162.69862928  .00016389  00000-0  50495-3 0  9993
2 63217  97.3892  58.6467 0004481 124.0183 236.1485 15.33685523 69253
TEVEL2-3
1 63218U 25052J   26162.69346801  .00016740  00000-0  51483-3 0  9990
2 63218  97.3895  58.6628 0004465 124.0241 236.1426 15.33739822 69250
TEVEL2-2
1 63219U 25052K   26162.63372872  .00016607  00000-0  51153-3 0  9998
2 63219  97.3892  58.5842 0004438 124.7997 235.3663 15.33691849 69249
TEVEL2-9
1 63237U 25052AD  26162.66933140  .00015595  00000-0  51070-3 0  9995
2 63237  97.3955  58.0067 0007180 145.2035 214.9678 15.31729289 69181
TEVEL2-7
1 63238U 25052AE  26162.64384617  .00015266  00000-0  50453-3 0  9992
2 63238  97.3956  57.8996 0007384 146.6025 213.5683 15.31438085 69172
TEVEL2-8
1 63239U 25052AF  26162.65204074  .00015443  00000-0  51057-3 0  9990
2 63239  97.3954  57.8849 0007385 147.5513 212.6184 15.31421974 69176
SPIRONE
1 66657U 25274H   26162.69424747  .00002371  00000-0  23018-3 0  9990
2 66657  97.7482  92.0640 0013186  39.3964 320.8212 14.93524701 29402
K-HERO
1 66660U 25274L   26162.70037605  .00001907  00000-0  18412-3 0  9995
2 66660  97.7491  92.2272 0015174  42.4511 317.7880 14.93943998 29411
SNUGLITE-III DURI
1 66661U 25274M   26162.35342095  .00001834  00000-0  17716-3 0  9994
2 66661  97.7488  91.9052 0015727  43.9860 316.2609 14.93981607 29363
SAKHACUBE-CHOLBON
1 67290U 25313AU  26162.71359684  .00008400  00000-0  34113-3 0  9995
2 67290  97.3936 237.8168 0009403  24.6626 335.5060 15.24792040 25148
RS95S (QMR-KWT-2)
1 67291U 25313AV  26162.70682690  .00012644  00000-0  49145-3 0  9997
2 67291  97.3938 237.9744 0008769  23.1674 336.9958 15.26151310 25156
Ten-Koh2
1 68261U 25241B   26161.72007287  .00005667  00000-0  24553-3 0  9992
2 68261  51.6686 350.4048 0006326 123.3884 236.7700 15.23827135 13924
JACK-002
1 68417U 26067B   26162.62928412  .00006536  00000-0  31259-3 0  9991
2 68417  97.4561 121.2887 0000844  15.6757 344.4503 15.19326237 11101
DISCO 2
1 68431U 26067R   26162.84688025  .00007458  00000-0  35960-3 0  9991
2 68431  97.4592 121.4922 0003298  52.2838 307.8695 15.18991676 11138
HADES-SA (SpinnyONE)
1 68446U 26067AG  26162.62235870  .00017480  00000-0  83941-3 0  9997
2 68446  97.4395 121.0022 0009569  96.0146 264.2179 15.18872260 11081
PARUS-6U1
1 68456U 26067AS  26162.38569289  .00004479  00000-0  22698-3 0  9991
2 68456  97.4543 120.8384 0007638  86.8057 273.4050 15.17454121 11056
SAL-E
1 68458U 26067AU  26162.38200311  .00005894  00000-0  29572-3 0  9991
2 68458  97.4466 120.7745 0007993  93.8966 266.3182 15.17671197 11054
FSI-SAT 2
1 68792U 26088A   26162.37552808  .00003914  00000-0  26635-3 0  9993
2 68792  97.5046 311.7813 0015567 125.1417 235.1272 15.06783507  7410
OrigamiSat 2
1 68795U 26088D   26162.12657880  .00002823  00000-0  18400-3 0  9994
2 68795  97.5007 311.6580 0016405 100.0294 260.2787 15.08593796  7384
ARICA 2
1 68796U 26088E   26162.65547728  .00003522  00000-0  22986-3 0  9993
2 68796  97.5045 312.1677 0017187  97.6089 262.7092 15.08382175  7463
WASEDA-SAT-ZERO-II
1 68797U 26088F   26162.65195126  .00005254  00000-0  33909-3 0  9996
2 68797  97.5044 312.1717 0016925  97.5686 262.7465 15.08578017  7465
MANGARO-II-Piscus
1 68798U 26088G   26162.37767603  .00003385  00000-0  21864-3 0  9991
2 68798  97.5053 311.9302 0020461 101.0235 259.3297 15.08739077  7420
IO-86
1 40931U          25360.30710720  .00000000  00000-0  12800-3 0    00
2 40931   6.0006 332.5373 0012733 338.8432   8.1437 14.79075515    01
LILIUM-4
1 71922C 26067AC  26089.50133053 -.00014632  00000+0 -74472-3 0    04
2 71922  97.4497  49.1617 0004341   5.9603 355.7042 15.16896692    16
